• In Romania
  • List of Countries
  • For 7 days
  • Water Temperature
  • Satellite Maps
  • Weather Map
  • Weather Widgets
  • user-avatar
    Login

    Hourly Weather Sumgayit

    Today, 22 November, Wednesday

    Time Temperature Precipitation Wind Pressure Humidity
    00:00 +15°C° 0 mm 5 mps 729 mmHg 39%
    01:00 +15°C° 0 mm 5 mps 729 mmHg 39%
    02:00 +15°C° 0 mm 5 mps 728 mmHg 38%
    03:00 +15°C° 0 mm 6 mps 728 mmHg 37%
    04:00 +15°C° 0 mm 6 mps 728 mmHg 37%
    05:00 +14°C° 0 mm 6 mps 729 mmHg 37%
    06:00 +14°C° 0 mm 6 mps 729 mmHg 36%
    07:00 +14°C° 0 mm 7 mps 730 mmHg 43%
    08:00 +12°C° 0 mm 7 mps 730 mmHg 49%
    09:00 +12°C° 0 mm 9 mps 731 mmHg 61%
    10:00 +12°C° 0 mm 9 mps 732 mmHg 60%
    11:00 +13°C° 0 mm 10 mps 732 mmHg 60%
    12:00 +13°C° 0 mm 10 mps 733 mmHg 60%
    13:00 +12°C° 0 mm 11 mps 733 mmHg 59%
    14:00 +12°C° 0 mm 11 mps 734 mmHg 58%
    15:00 +10°C° 0 mm 12 mps 734 mmHg 59%
    16:00 +9°C° 0.1 mm 12 mps 735 mmHg 61%
    17:00 +9°C° 0.1 mm 11 mps 735 mmHg 63%
    18:00 +8°C° 0.1 mm 11 mps 736 mmHg 65%
    19:00 +7°C° 0 mm 11 mps 736 mmHg 67%
    20:00 +7°C° 0 mm 11 mps 737 mmHg 69%
    21:00 +7°C° 0 mm 10 mps 737 mmHg 70%
    22:00 +6°C° 0.2 mm 10 mps 737 mmHg 72%
    23:00 +6°C° 0.2 mm 10 mps 738 mmHg 74%

    Tomorrow, 23 November, Thursday

    Time Temperature Precipitation Wind Pressure Humidity
    00:00 +5°C° 0.2 mm 10 mps 738 mmHg 75%
    01:00 +5°C° 0.3 mm 9 mps 738 mmHg 75%
    02:00 +5°C° 0.3 mm 8 mps 738 mmHg 76%
    03:00 +5°C° 0.3 mm 8 mps 738 mmHg 76%
    04:00 +5°C° 0.3 mm 7 mps 739 mmHg 77%
    05:00 +4°C° 0.3 mm 7 mps 739 mmHg 78%
    06:00 +4°C° 0.3 mm 6 mps 739 mmHg 78%
    07:00 +5°C° 0.2 mm 5 mps 739 mmHg 78%
    08:00 +6°C° 0.2 mm 5 mps 739 mmHg 78%
    09:00 +6°C° 0.2 mm 4 mps 739 mmHg 77%
    10:00 +7°C° 0.1 mm 3 mps 739 mmHg 75%
    11:00 +7°C° 0.1 mm 3 mps 739 mmHg 74%
    12:00 +8°C° 0.1 mm 2 mps 739 mmHg 72%
    13:00 +8°C° 0 mm 3 mps 739 mmHg 68%
    14:00 +9°C° 0 mm 3 mps 739 mmHg 64%
    15:00 +9°C° 0 mm 3 mps 739 mmHg 60%
    16:00 +8°C° 0 mm 4 mps 739 mmHg 58%
    17:00 +8°C° 0 mm 4 mps 739 mmHg 57%
    18:00 +7°C° 0 mm 5 mps 740 mmHg 55%
    19:00 +7°C° 0 mm 5 mps 740 mmHg 52%
    20:00 +7°C° 0 mm 5 mps 740 mmHg 49%
    21:00 +7°C° 0 mm 5 mps 740 mmHg 45%
    22:00 +6°C° 0 mm 5 mps 740 mmHg 50%
    23:00 +6°C° 0 mm 5 mps 740 mmHg 54%

    Day after tomorrow, 24 November, Friday

    Time Temperature Precipitation Wind Pressure Humidity
    00:00 +6°C° 0 mm 5 mps 741 mmHg 58%
    01:00 +6°C° 0 mm 5 mps 741 mmHg 60%
    02:00 +6°C° 0 mm 5 mps 741 mmHg 62%
    03:00 +6°C° 0 mm 5 mps 741 mmHg 64%
    04:00 +6°C° 0.1 mm 5 mps 741 mmHg 66%
    05:00 +6°C° 0.1 mm 5 mps 742 mmHg 67%
    06:00 +6°C° 0.1 mm 5 mps 742 mmHg 69%
    07:00 +6°C° 0.1 mm 5 mps 742 mmHg 66%
    08:00 +5°C° 0.1 mm 6 mps 743 mmHg 63%
    09:00 +5°C° 0.1 mm 6 mps 743 mmHg 60%
    10:00 +5°C° 0 mm 6 mps 743 mmHg 56%
    11:00 +7°C° 0 mm 6 mps 743 mmHg 52%
    12:00 +7°C° 0 mm 5 mps 743 mmHg 48%
    13:00 +7°C° 0 mm 5 mps 743 mmHg 45%
    14:00 +7°C° 0 mm 5 mps 743 mmHg 43%
    15:00 +7°C° 0 mm 5 mps 743 mmHg 40%
    16:00 +7°C° 0 mm 5 mps 743 mmHg 44%
    17:00 +6°C° 0 mm 5 mps 743 mmHg 48%
    18:00 +6°C° 0 mm 5 mps 744 mmHg 51%
    19:00 +5°C° 0 mm 5 mps 744 mmHg 53%
    20:00 +5°C° 0 mm 4 mps 744 mmHg 54%
    21:00 +4°C° 0 mm 4 mps 744 mmHg 56%
    22:00 +4°C° 0 mm 4 mps 744 mmHg 55%
    23:00 +4°C° 0 mm 3 mps 744 mmHg 54%

    25 November, Saturday

    Time Temperature Precipitation Wind Pressure Humidity
    00:00 +4°C° 0 mm 3 mps 744 mmHg 53%
    01:00 +4°C° 0 mm 3 mps 744 mmHg 51%
    02:00 +3°C° 0 mm 3 mps 745 mmHg 49%
    03:00 +3°C° 0 mm 3 mps 745 mmHg 48%
    04:00 +3°C° 0 mm 3 mps 745 mmHg 47%
    05:00 +3°C° 0 mm 3 mps 745 mmHg 47%
    06:00 +3°C° 0 mm 3 mps 745 mmHg 46%
    07:00 +3°C° 0.1 mm 3 mps 746 mmHg 44%
    08:00 +4°C° 0.1 mm 4 mps 746 mmHg 43%
    09:00 +3°C° 0.1 mm 5 mps 747 mmHg 41%
    10:00 +4°C° 0.5 mm 6 mps 747 mmHg 45%
    11:00 +4°C° 0.5 mm 7 mps 747 mmHg 49%
    12:00 +5°C° 0.5 mm 9 mps 747 mmHg 53%
    13:00 +5°C° 0.1 mm 8 mps 747 mmHg 53%
    14:00 +5°C° 0.1 mm 8 mps 748 mmHg 54%
    15:00 +5°C° 0.1 mm 8 mps 748 mmHg 54%
    16:00 +5°C° 0.1 mm 8 mps 749 mmHg 57%
    17:00 +4°C° 0.1 mm 7 mps 749 mmHg 60%
    18:00 +3°C° 0.1 mm 7 mps 750 mmHg 63%
    19:00 +3°C° 0.1 mm 7 mps 750 mmHg 65%
    20:00 +3°C° 0.1 mm 7 mps 750 mmHg 66%
    21:00 +3°C° 0.1 mm 7 mps 751 mmHg 68%
    22:00 +3°C° 0 mm 6 mps 751 mmHg 69%
    23:00 +2°C° 0 mm 5 mps 751 mmHg 70%

    26 November, Sunday

    Time Temperature Precipitation Wind Pressure Humidity
    00:00 +2°C° 0 mm 5 mps 751 mmHg 70%
    01:00 +3°C° 0 mm 4 mps 751 mmHg 70%
    02:00 +3°C° 0 mm 4 mps 751 mmHg 70%
    03:00 +3°C° 0 mm 4 mps 751 mmHg 70%
    04:00 +3°C° 0 mm 4 mps 751 mmHg 69%
    05:00 +3°C° 0 mm 4 mps 751 mmHg 69%
    06:00 +3°C° 0 mm 4 mps 751 mmHg 69%
    07:00 +3°C° 0 mm 4 mps 751 mmHg 66%
    08:00 +4°C° 0 mm 4 mps 752 mmHg 63%
    09:00 +3°C° 0 mm 5 mps 752 mmHg 61%
    10:00 +5°C° 0 mm 5 mps 752 mmHg 60%
    11:00 +5°C° 0 mm 5 mps 751 mmHg 59%
    12:00 +5°C° 0 mm 5 mps 751 mmHg 58%
    13:00 +5°C° 0 mm 5 mps 751 mmHg 60%
    14:00 +5°C° 0 mm 5 mps 751 mmHg 61%
    15:00 +5°C° 0 mm 5 mps 751 mmHg 63%
    16:00 +5°C° 0 mm 4 mps 751 mmHg 65%
    17:00 +5°C° 0 mm 4 mps 751 mmHg 68%
    18:00 +4°C° 0 mm 4 mps 751 mmHg 70%
    19:00 +4°C° 0 mm 3 mps 751 mmHg 70%
    20:00 +5°C° 0 mm 2 mps 751 mmHg 71%
    21:00 +5°C° 0 mm 2 mps 751 mmHg 72%
    22:00 +5°C° 0 mm 2 mps 751 mmHg 70%
    23:00 +4°C° 0 mm 2 mps 750 mmHg 69%

    27 November, Monday

    Time Temperature Precipitation Wind Pressure Humidity
    00:00 +5°C° 0 mm 1 mps 750 mmHg 68%
    01:00 +4°C° 0 mm 2 mps 750 mmHg 65%
    02:00 +4°C° 0 mm 2 mps 750 mmHg 63%
    03:00 +4°C° 0 mm 2 mps 749 mmHg 61%
    04:00 +4°C° 0 mm 2 mps 749 mmHg 60%
    05:00 +3°C° 0 mm 3 mps 749 mmHg 60%
    06:00 +3°C° 0 mm 3 mps 749 mmHg 59%
    07:00 +4°C° 0 mm 3 mps 749 mmHg 58%
    08:00 +4°C° 0 mm 3 mps 749 mmHg 56%
    09:00 +5°C° 0 mm 4 mps 749 mmHg 54%
    10:00 +6°C° 0 mm 4 mps 749 mmHg 53%
    11:00 +7°C° 0 mm 4 mps 748 mmHg 52%
    12:00 +8°C° 0 mm 4 mps 748 mmHg 50%
    13:00 +8°C° 0 mm 4 mps 748 mmHg 50%
    14:00 +9°C° 0 mm 3 mps 747 mmHg 50%
    15:00 +9°C° 0 mm 3 mps 747 mmHg 50%
    16:00 +8°C° 0 mm 3 mps 747 mmHg 52%
    17:00 +8°C° 0 mm 3 mps 747 mmHg 55%
    18:00 +7°C° 0 mm 3 mps 747 mmHg 57%
    19:00 +7°C° 0 mm 3 mps 747 mmHg 56%
    20:00 +7°C° 0 mm 3 mps 747 mmHg 56%
    21:00 +7°C° 0 mm 3 mps 747 mmHg 55%
    22:00 +6°C° 0 mm 4 mps 746 mmHg 56%
    23:00 +6°C° 0 mm 4 mps 746 mmHg 58%
    Show more